FW2454 Weather Reports


time (UTC)temp
F
wind
direction
speed
knots
gust
knots
rain 1hr
in
rain 24hr
in
rain mn
in
humidity
%
barometer
mb
20260505041511 75 167 0.0 0.0 0.00 0.00 0.00 94 1012.4
20260505040006 76 205 0.0 0.0 0.00 0.00 0.00 94 1012.4
20260505034502 77 205 0.0 0.0 0.00 0.00 0.00 94 1012.4
20260505033002 78 205 0.0 0.9 0.00 0.00 0.00 94 1012.5
20260505031501 78 200 0.0 0.0 0.00 0.00 0.00 94 1012.6
20260505030003 77 200 0.0 0.0 0.00 0.00 0.00 94 1012.7
20260505024601 77 200 0.0 0.9 0.00 0.00 0.00 94 1012.6
20260505023109 77 215 0.0 0.0 0.00 0.00 0.00 93 1012.5
20260505021601 78 215 0.0 0.0 0.00 0.00 0.00 93 1012.4
20260505014559 78 215 0.0 0.0 0.00 0.00 0.00 93 1012.3
20260505013057 78 215 0.0 0.0 0.00 0.00 0.00 93 1012.2
20260505011558 78 215 0.0 0.0 0.00 0.00 0.00 92 1012.1
20260505010103 79 215 0.0 0.0 0.00 0.00 0.00 91 1011.8
20260505004556 79 215 0.0 0.0 0.00 0.00 0.00 91 1011.8
20260505003101 80 215 0.0 0.0 0.00 0.00 0.00 91 1011.6
20260505001555 79 155 0.0 0.0 0.00 0.00 0.00 91 1011.4
20260505000111 79 155 0.0 0.9 0.00 0.00 0.00 90 1011.4
20260504234553 80 130 0.0 0.0 0.00 0.00 0.00 89 1011.3
20260504233055 81 320 0.0 0.0 0.00 0.00 0.00 88 1011.2
20260504231553 81 20 0.0 0.0 0.00 0.00 0.00 87 1011.1
20260504230053 81 287 0.0 0.9 0.00 0.00 0.00 87 1011.0
20260504224552 82 318 0.0 1.7 0.00 0.00 0.00 85 1011.0
20260504223053 83 296 0.0 0.9 0.00 0.00 0.00 84 1010.9
20260504221553 82 307 0.0 2.6 0.00 0.00 0.00 85 1010.7
20260504220110 83 353 0.9 4.3 0.00 0.00 0.00 84 1010.5
20260504214554 83 309 0.0 5.2 0.00 0.00 0.00 83 1010.3
20260504213054 84 313 0.0 3.5 0.00 0.00 0.00 83 1010.2
20260504211553 85 297 1.7 5.2 0.00 0.00 0.00 82 1010.1
20260504210050 85 20 1.7 7.8 0.00 0.00 0.00 82 1010.1
20260504204547 85 15 2.6 9.6 0.00 0.00 0.00 80 1010.1
20260504203049 85 300 0.0 8.7 0.00 0.00 0.00 81 1010.1
20260504201547 86 296 0.9 5.2 0.00 0.00 0.00 80 1010.1
20260504200051 85 70 0.9 7.0 0.00 0.00 0.00 81 1010.1
20260504194548 85 293 0.9 8.7 0.00 0.00 0.00 80 1010.1
20260504193045 86 293 2.6 7.8 0.00 0.00 0.00 77 1010.1
20260504191553 86 302 0.9 5.2 0.00 0.00 0.00 79 1010.2
20260504190050 86 330 0.9 6.1 0.00 0.00 0.00 75 1010.2
20260504184552 87 296 2.6 6.1 0.00 0.00 0.00 75 1010.3
20260504183048 86 297 0.9 9.6 0.00 0.00 0.00 76 1010.3
20260504181546 86 28 0.9 6.1 0.00 0.00 0.00 75 1010.6
20260504180037 87 354 0.9 7.0 0.00 0.00 0.00 76 1010.7
20260504174534 87 15 0.9 7.8 0.00 0.00 0.00 74 1010.9
20260504173033 86 311 2.6 7.8 0.00 0.00 0.00 76 1011.2
20260504171532 86 359 1.7 6.1 0.00 0.00 0.00 78 1011.3
20260504081537 71 84 0.0 0.0 0.00 0.01 0.00 93 1011.2